Location: Arboucave
(43.6130°N, 0.4343°W)
Time: 07:29:04
(UTC+00:00)

Nadezhda 4 Rocket - Pass Details

Date: 17 November 2025
Orbit: 948 x 991 km, 82.9° (Epoch: 13 December)

Event Time Altitude Azimuth Distance (km) Brightness Sun altitude
Rises 18:12:41 0° 353° (N) 3,703 7.0 -17.7°
Reaches altitude 10° 18:15:15 10° 356° (N) 2,745 6.3 -18.1°
Maximum altitude 18:21:32 72° 81° (E) 1,022 3.9 -19.3°
Drops below altitude 10° 18:27:43 10° 166° (SSE) 2,698 6.2 -20.4°
Sets 18:30:12 0° 168° (SSE) 3,634 6.9 -20.8°
